• Join FlightAware (Why Join?)
  • Login
  • US Flag 
04:06PM EST


 

Airport Tracker/Info


-or-


 

Live Flight TrackerFlight Track Log ✈ EJA929 ✈ 15-Aug-2013 ✈ KBJC - KLAX

Flight Track Log - Related Links

Times and Time Zones

All times are in EDT time to prevent confusion due to time zone crossing. See the EJA929 flight status page for this flight to view local times or setup timezone preferences in your user account.

Time Position Orientation Groundspeed Altitude Reporting Facility
EDT Latitude Longitude Course Direction KTS MPH feet Rate Location/Type
03:00PM 39.9333 -105.1333 360° North 193 222 7,100  Level Denver TRACON
03:01PM 40.0000 -105.1333 360° North 247 284 7,900 800 Climbing Denver TRACON
03:02PM 40.0667 -105.1500 349° North 244 281 8,700 1,900 Climbing Denver TRACON
03:03PM 40.0667 -105.2167 270° West 257 296 11,700 2,900 Climbing Denver TRACON
03:04PM 40.0333 -105.3000 242° Southwest 251 289 14,500 2,087 Climbing Denver TRACON
03:06PM 39.9514 -105.3633 211° Southwest 302 348 16,500 1,579 Climbing Denver Center
03:07PM 39.8561 -105.3797 188° South 347 399 18,500 2,206 Climbing Denver Center
03:08PM 39.7739 -105.4786 223° Southwest 342 394 21,500 1,971 Climbing Denver Center
03:09PM 39.7253 -105.6019 243° Southwest 359 413 23,000 662 Climbing Denver Center
03:10PM 39.6892 -105.7431 252° West 415 478 23,000 1,016 Level Denver Center
03:11PM 39.6703 -105.9292 263° West 429 494 25,100 1,872 Climbing Denver Center
03:12PM 39.6525 -106.0853 262° West 437 503 26,900 1,694 Climbing Denver Center
03:13PM 39.6333 -106.2528 262° West 440 506 28,600 1,500 Climbing Denver Center
03:14PM 39.5975 -106.4064 253° West 448 516 30,000 1,597 Climbing Denver Center
03:15PM 39.5453 -106.5678 247° West 460 529 31,900 1,935 Climbing Denver Center
03:17PM 39.4903 -106.7350 247° West 454 522 34,000 1,016 Climbing Denver Center
03:18PM 39.4406 -106.8869 247° West 477 549 34,000  Level Denver Center
03:19PM 39.3947 -107.0775 253° West 494 568 34,000 350 Level Denver Center
03:20PM 39.3514 -107.2433 251° West 505 581 34,800 971 Climbing Denver Center
03:21PM 39.2978 -107.4553 252° West 489 563 36,200 1,161 Climbing Denver Center
03:22PM 39.2581 -107.6122 252° West 481 554 37,200 1,113 Climbing Denver Center
03:23PM 39.2097 -107.7950 251° West 479 551 38,500 1,113 Climbing Denver Center
03:24PM 39.1711 -107.9475 252° West 469 540 39,500 1,065 Climbing Denver Center
03:25PM 39.1264 -108.1197 252° West 453 521 40,700 1,113 Climbing Denver Center
03:26PM 39.0883 -108.2653 251° West 447 514 41,800 1,104 Climbing Denver Center
03:27PM 39.0425 -108.4367 251° West 450 518 43,000 576 Climbing Denver Center
03:28PM 39.0042 -108.5839 252° West 453 521 43,000  Level Denver Center
03:29PM 38.9583 -108.7522 251° West 446 513 43,000  Level Denver Center
03:30PM 38.9189 -108.8989 251° West 452 520 43,000  Level Denver Center
03:31PM 38.8725 -109.0706 251° West 455 524 43,000  Level Denver Center
03:32PM 38.8325 -109.2172 251° West 456 525 43,000  Level Denver Center
03:33PM 38.7928 -109.3639 251° West 457 526 43,000  Level Denver Center
03:34PM 38.7469 -109.5350 251° West 456 525 43,000  Level Denver Center
03:36PM 38.7039 -109.6775 249° West 450 518 43,000  Level Denver Center
03:37PM 38.6508 -109.8736 251° West 455 524 43,000  Level Denver Center
03:38PM 38.6014 -110.0442 250° West 457 526 43,000  Level Denver Center
03:38PM 38.5697 -110.1703 252° West 461 531 43,000  Level Salt Lake Center
03:39PM 38.5281 -110.3158 250° West 459 528 43,000  Level Salt Lake Center
03:40PM 38.4789 -110.4872 250° West 461 531 43,000  Level Salt Lake Center
03:42PM 38.4375 -110.6344 250° West 460 529 43,000  Level Salt Lake Center
03:43PM 38.3758 -110.7992 245° Southwest 464 534 43,000  Level Salt Lake Center
03:43PM 38.3539 -110.8425 237° Southwest 464 534 43,000  Level Denver Center
03:44PM 38.2794 -111.0081 240° Southwest 460 529 43,000  Level Denver Center
03:45PM 38.2039 -111.1800 241° Southwest 463 533 43,000  Level Denver Center
03:46PM 38.1386 -111.3197 239° Southwest 461 531 43,000  Level Denver Center
03:48PM 38.0522 -111.5183 241° Southwest 458 527 43,000  Level Salt Lake Center
03:49PM 37.9872 -111.6567 239° Southwest 457 526 43,000  Level Salt Lake Center
03:50PM 37.9231 -111.7958 240° Southwest 458 527 43,000  Level Salt Lake Center
03:51PM 37.8589 -111.9331 239° Southwest 454 522 43,000  Level Salt Lake Center
03:52PM 37.7828 -112.1011 240° Southwest 459 528 43,000  Level Salt Lake Center
03:53PM 37.7192 -112.2386 240° Southwest 456 525 43,000  Level Salt Lake Center
03:54PM 37.6486 -112.3708 236° Southwest 453 521 43,000  Level Salt Lake Center
03:55PM 37.5661 -112.4953 230° Southwest 457 526 43,000  Level Salt Lake Center
03:56PM 37.4839 -112.6228 231° Southwest 461 531 43,000  Level Salt Lake Center
03:57PM 37.3989 -112.7511 230° Southwest 466 536 43,000  Level Salt Lake Center
03:58PM 37.3172 -112.8800 231° Southwest 466 536 43,000  Level Salt Lake Center
03:59PM 37.2364 -113.0069 231° Southwest 464 534 43,000  Level Salt Lake Center
04:00PM 37.1381 -113.1586 231° Southwest 465 535 43,000  Level Salt Lake Center
04:01PM 37.0561 -113.2844 231° Southwest 465 535 43,000  Level Salt Lake Center
04:02PM 36.9742 -113.4097 231° Southwest 465 535 43,000  Level Salt Lake Center
04:03PM 36.8914 -113.5353 231° Southwest 466 536 43,000  Level Salt Lake Center
04:04PM 36.8092 -113.6597 230° Southwest 465 535 43,000  Level Salt Lake Center
04:05PM 36.7264 -113.7844 230° Southwest 466 536 43,000  Level Salt Lake Center
04:07PM 36.6094 -113.9581 230° Southwest 468 539 43,000  Level Los Angeles Center
04:08PM 36.5256 -114.0828 230° Southwest 471 542 43,000  Level Los Angeles Center
04:09PM 36.4406 -114.2075 230° Southwest 468 539 43,000  Level Los Angeles Center
04:10PM 36.3561 -114.3328 230° Southwest 473 544 43,000  Level Los Angeles Center
04:11PM 36.2717 -114.4556 230° Southwest 469 540 43,000  Level Los Angeles Center
04:12PM 36.1869 -114.5808 230° Southwest 472 543 43,000  Level Los Angeles Center
04:13PM 36.0853 -114.7303 230° Southwest 471 542 43,000  Level Los Angeles Center
04:14PM 35.9822 -114.8781 229° Southwest 471 542 43,000  Level Los Angeles Center
04:15PM 35.8956 -114.9986 228° Southwest 469 540 43,000  Level Los Angeles Center
04:16PM 35.8061 -115.1183 227° Southwest 471 542 43,000  Level Los Angeles Center
04:17PM 35.7178 -115.2400 228° Southwest 475 547 43,000  Level Los Angeles Center
04:18PM 35.6286 -115.3606 228° Southwest 475 547 43,000  Level Los Angeles Center
04:19PM 35.5411 -115.4792 228° Southwest 469 540 43,000 -823 Level Los Angeles Center
04:20PM 35.4583 -115.5900 227° Southwest 425 489 41,300 -2,177 Descending Los Angeles Center
04:21PM 35.3711 -115.7069 228° Southwest 416 479 38,500 -1,597 Descending Los Angeles Center
04:22PM 35.2850 -115.8206 227° Southwest 420 483 38,000 -242 Descending Los Angeles Center
04:23PM 35.2050 -115.9253 227° Southwest 421 484 38,000  Level Los Angeles Center
04:24PM 35.1261 -116.0319 228° Southwest 423 487 38,000  Level Los Angeles Center
04:25PM 35.0467 -116.1356 227° Southwest 420 483 38,000 -480 Level Los Angeles Center
04:26PM 34.9667 -116.2403 227° Southwest 420 483 37,000 -1,161 Descending Los Angeles Center
04:28PM 34.8856 -116.3481 227° Southwest 427 491 35,600 -1,548 Descending Los Angeles Center
04:29PM 34.7822 -116.4772 226° Southwest 440 506 33,800 -2,032 Descending Los Angeles Center
04:30PM 34.6825 -116.5697 217° Southwest 448 516 31,400 -2,226 Descending Los Angeles Center
04:31PM 34.5853 -116.6600 217° Southwest 441 507 29,200 -2,064 Descending Los Angeles Center
04:32PM 34.4919 -116.7469 218° Southwest 428 493 27,100 -1,920 Descending Los Angeles Center
04:33PM 34.3992 -116.8328 217° Southwest 420 483 25,200 -1,790 Descending Los Angeles Center
04:34PM 34.3119 -116.9147 218° Southwest 403 464 23,400 -1,790 Descending Los Angeles Center
04:35PM 34.2258 -116.9947 218° Southwest 393 452 21,500 -1,984 Descending Los Angeles Center
04:36PM 34.1242 -117.0900 218° Southwest 385 443 19,300 -1,355 Descending Los Angeles Center
04:37PM 34.0742 -117.1803 236° Southwest 337 388 18,700 -1,776 Descending Los Angeles Center
04:38PM 34.0431 -117.2772 249° West 315 362 15,600 -2,688 Descending Los Angeles Center
04:39PM 34.0353 -117.3769 265° West 302 348 13,100 -2,081 Descending Los Angeles Center
04:40PM 34.0239 -117.4953 263° West 298 343 11,300 -1,500 Descending Los Angeles Center
04:41PM 34.0150 -117.5919 264° West 294 338 10,000 -629 Descending Los Angeles Center
04:42PM 34.0067 -117.6883 264° West 291 335 10,000 -581 Level Los Angeles Center
04:43PM 33.9978 -117.7842 264° West 290 334 8,800 -1,317 Descending Los Angeles Center
04:44PM 33.9833 -117.8833 260° West 261 300 7,300 -850 Descending Southern California TRACON
04:45PM 33.9833 -117.9833 270° West 243 280 7,000 -619 Descending Southern California TRACON
04:46PM 33.9667 -118.0667 256° West 233 268 6,000 -950 Descending Southern California TRACON
04:47PM 33.9667 -118.1333 270° West 199 229 5,100 -1,190 Descending Southern California TRACON
04:48PM 33.9500 -118.2000 253° West 201 231 3,600 -1,438 Descending Southern California TRACON
04:49PM 33.9500 -118.2500 270° West 185 213 2,200 -1,105 Descending Southern California TRACON
04:50PM 33.9500 -118.3000 270° West 178 205 1,500 -789 Descending Southern California TRACON
04:51PM 33.9333 -118.3500 248° West 147 169 700 -526 Descending Southern California TRACON
04:52PM 33.9867 -118.4083 318° Northwest 186 214 300 -312 Descending Los Angeles Center